Terminal Aerodrome Forecast
Issued by NWS

Home | Current Version | Previous Version | Text Only | Print | Product List | Glossary On
Versions: 1 2 3 4 5 6 7 8 9 10 11 12 13 14 15 16 17 18 19 20 21 22 23 24 25 26 27 28
000
FTUS41 KBUF 051100
TAFJHW
TAF
KJHW 051135Z 0512/0612 33008KT P6SM FEW025 BKN100
     FM052000 30010KT P6SM FEW025 SCT250
     FM060200 29006KT P6SM SCT250
     FM060600 VRB03KT P6SM FEW250
      AMD LTD TO CLD VIS AND WIND=

USA.gov is the U.S. government's official web portal to all federal, state and local government web resources and services.